Wetterdaten: Montag, 14.03.2016
Datum Zeit Auen-Temp. Temp gefhlt Luftfeuchte Luftdruck Regen Wind Richtung Richtung Sonnenschein Taupunkt Windben
14.03.2016 00:00 1,1 C 0,3 C 82 % 1024,0 hPa 0,0 mm 13,1 km/h (3 Bft) W-SW 247 0 min -1,6 C 7,2 km/h (2 Bft)
14.03.2016 00:05 1,1 C 0,3 C 86 % 1024,0 hPa 0,0 mm 12,2 km/h (2 Bft) O-NO 67 0 min -1,0 C 13,4 km/h (3 Bft)
14.03.2016 00:10 1,1 C 0,4 C 86 % 1023,9 hPa 0,0 mm 10,7 km/h (2 Bft) NO 45 0 min -1,0 C 9,5 km/h (2 Bft)
14.03.2016 00:15 1,1 C 0,3 C 86 % 1023,9 hPa 0,0 mm 11,3 km/h (2 Bft) O 90 0 min -1,0 C 25,3 km/h (4 Bft)
14.03.2016 00:20 1,1 C 0,5 C 86 % 1023,9 hPa 0,0 mm 14,3 km/h (3 Bft) O-SO 112 0 min -1,0 C 18,2 km/h (3 Bft)
14.03.2016 00:25 1,1 C 0,2 C 86 % 1023,9 hPa 0,0 mm 13,4 km/h (3 Bft) O-NO 67 0 min -1,0 C 25,9 km/h (4 Bft)
14.03.2016 00:30 1,1 C 0,2 C 86 % 1023,8 hPa 0,0 mm 12,5 km/h (3 Bft) NO 45 0 min -1,0 C 21,5 km/h (4 Bft)
14.03.2016 00:35 1,1 C 0,4 C 86 % 1023,8 hPa 0,0 mm 14,3 km/h (3 Bft) O 90 0 min -1,0 C 34,0 km/h (5 Bft)
14.03.2016 00:40 1,1 C 0,2 C 86 % 1023,8 hPa 0,0 mm 13,7 km/h (3 Bft) NW 315 0 min -1,0 C 13,4 km/h (3 Bft)
14.03.2016 00:45 1,1 C 0,2 C 86 % 1023,8 hPa 0,0 mm 13,1 km/h (3 Bft) O-NO 67 0 min -1,0 C 6,3 km/h (2 Bft)
14.03.2016 00:50 1,1 C 0,2 C 86 % 1023,6 hPa 0,0 mm 13,1 km/h (3 Bft) O-NO 67 0 min -1,0 C 24,1 km/h (4 Bft)
14.03.2016 00:55 1,1 C 0,4 C 86 % 1023,6 hPa 0,0 mm 14,9 km/h (3 Bft) O-NO 67 0 min -1,0 C 20,9 km/h (4 Bft)
14.03.2016 01:00 1,1 C 0,0 C 86 % 1023,6 hPa 0,0 mm 15,2 km/h (3 Bft) NO 45 0 min -1,0 C 19,7 km/h (3 Bft)
14.03.2016 01:05 1,1 C 0,3 C 86 % 1023,6 hPa 0,0 mm 14,6 km/h (3 Bft) O-NO 67 0 min -1,0 C 17,9 km/h (3 Bft)
14.03.2016 01:10 1,1 C 0,4 C 86 % 1023,6 hPa 0,0 mm 14,3 km/h (3 Bft) O-SO 112 0 min -1,0 C 14,9 km/h (3 Bft)
14.03.2016 01:15 1,0 C 0,1 C 83 % 1023,6 hPa 0,0 mm 14,0 km/h (3 Bft) O-NO 67 0 min -1,6 C 36,1 km/h (5 Bft)
14.03.2016 01:20 1,0 C 0,1 C 83 % 1023,6 hPa 0,0 mm 14,3 km/h (3 Bft) O-NO 67 0 min -1,6 C 23,8 km/h (4 Bft)
14.03.2016 01:25 1,0 C 0,4 C 83 % 1023,6 hPa 0,0 mm 15,5 km/h (3 Bft) O-NO 67 0 min -1,6 C 19,4 km/h (3 Bft)
14.03.2016 01:30 1,0 C 0,3 C 83 % 1023,6 hPa 0,0 mm 16,1 km/h (3 Bft) NO 45 0 min -1,6 C 24,1 km/h (4 Bft)
14.03.2016 01:35 1,0 C 0,3 C 87 % 1023,6 hPa 0,0 mm 15,5 km/h (3 Bft) NO 45 0 min -0,9 C 29,8 km/h (5 Bft)
14.03.2016 01:40 1,0 C 0,0 C 87 % 1023,6 hPa 0,0 mm 14,9 km/h (3 Bft) O-NO 67 0 min -0,9 C 17,9 km/h (3 Bft)
14.03.2016 01:44 1,0 C 0,0 C 87 % 1023,6 hPa 0,0 mm 15,5 km/h (3 Bft) NO 45 0 min -0,9 C 15,5 km/h (3 Bft)
14.03.2016 01:45 1,0 C 0,0 C 87 % 1023,6 hPa 0,0 mm 15,5 km/h (3 Bft) NO 45 0 min -0,9 C 15,5 km/h (3 Bft)
14.03.2016 01:50 1,0 C 0,2 C 87 % 1023,4 hPa 0,0 mm 15,2 km/h (3 Bft) NO 45 0 min -0,9 C 25,9 km/h (4 Bft)
14.03.2016 01:55 1,0 C 0,2 C 87 % 1023,4 hPa 0,0 mm 17,6 km/h (3 Bft) NO 45 0 min -0,9 C 12,8 km/h (3 Bft)
14.03.2016 02:00 1,0 C -0,2 C 87 % 1023,4 hPa 0,0 mm 17,9 km/h (3 Bft) O-NO 67 0 min -0,9 C 13,7 km/h (3 Bft)
14.03.2016 02:05 0,9 C 0,2 C 84 % 1023,4 hPa 0,0 mm 15,5 km/h (3 Bft) O-NO 67 0 min -1,5 C 12,8 km/h (3 Bft)
14.03.2016 02:10 0,9 C -0,1 C 84 % 1023,1 hPa 0,0 mm 15,8 km/h (3 Bft) O-NO 67 0 min -1,5 C 16,7 km/h (3 Bft)
14.03.2016 02:15 0,9 C 0,2 C 84 % 1023,1 hPa 0,0 mm 14,3 km/h (3 Bft) O-SO 112 0 min -1,5 C 8,9 km/h (2 Bft)
14.03.2016 02:20 0,9 C -0,1 C 88 % 1023,1 hPa 0,0 mm 14,0 km/h (3 Bft) N 360 0 min -0,9 C 11,9 km/h (2 Bft)
14.03.2016 02:25 0,9 C 0,1 C 88 % 1023,1 hPa 0,0 mm 15,2 km/h (3 Bft) O-NO 67 0 min -0,9 C 11,9 km/h (2 Bft)
14.03.2016 02:30 0,9 C -0,2 C 88 % 1023,0 hPa 0,0 mm 15,2 km/h (3 Bft) O-NO 67 0 min -0,9 C 21,2 km/h (4 Bft)
14.03.2016 02:35 0,9 C -0,1 C 88 % 1023,0 hPa 0,0 mm 14,0 km/h (3 Bft) NO 45 0 min -0,9 C 21,5 km/h (4 Bft)
14.03.2016 02:40 0,9 C 0,0 C 88 % 1023,0 hPa 0,0 mm 12,5 km/h (3 Bft) O-SO 112 0 min -0,9 C 8,3 km/h (2 Bft)
14.03.2016 02:45 0,9 C 0,1 C 88 % 1023,0 hPa 0,0 mm 10,1 km/h (2 Bft) NO 45 0 min -0,9 C 8,3 km/h (2 Bft)
14.03.2016 02:50 0,8 C 0,0 C 84 % 1022,7 hPa 0,0 mm 11,6 km/h (2 Bft) N-NO 22 0 min -1,6 C 8,6 km/h (2 Bft)
14.03.2016 02:55 0,8 C 0,0 C 84 % 1022,7 hPa 0,0 mm 11,9 km/h (2 Bft) SO 135 0 min -1,6 C 18,2 km/h (3 Bft)
14.03.2016 03:00 0,8 C -0,1 C 88 % 1022,7 hPa 0,0 mm 12,5 km/h (3 Bft) NO 45 0 min -1,0 C 20,9 km/h (4 Bft)
14.03.2016 03:05 0,8 C -0,2 C 88 % 1022,7 hPa 0,0 mm 13,1 km/h (3 Bft) O-NO 67 0 min -1,0 C 24,1 km/h (4 Bft)
14.03.2016 03:10 0,8 C -0,2 C 88 % 1022,8 hPa 0,0 mm 12,8 km/h (3 Bft) O-SO 112 0 min -1,0 C 23,5 km/h (4 Bft)
14.03.2016 03:15 0,8 C 0,1 C 88 % 1022,8 hPa 0,0 mm 14,3 km/h (3 Bft) O-NO 67 0 min -1,0 C 18,5 km/h (3 Bft)
14.03.2016 03:20 0,8 C -0,2 C 88 % 1022,8 hPa 0,0 mm 12,5 km/h (3 Bft) O-NO 67 0 min -1,0 C 24,7 km/h (4 Bft)
14.03.2016 03:25 0,7 C -0,1 C 84 % 1022,8 hPa 0,0 mm 11,6 km/h (2 Bft) O-NO 67 0 min -1,7 C 10,4 km/h (2 Bft)
14.03.2016 03:30 0,7 C -0,2 C 88 % 1022,5 hPa 0,0 mm 12,2 km/h (2 Bft) O-SO 112 0 min -1,1 C 16,1 km/h (3 Bft)
14.03.2016 03:35 0,7 C -0,2 C 88 % 1022,5 hPa 0,0 mm 12,5 km/h (3 Bft) O-NO 67 0 min -1,1 C 16,1 km/h (3 Bft)
14.03.2016 03:40 0,7 C -0,3 C 88 % 1022,5 hPa 0,0 mm 14,0 km/h (3 Bft) NO 45 0 min -1,1 C 15,8 km/h (3 Bft)
14.03.2016 03:45 0,7 C -0,2 C 88 % 1022,5 hPa 0,0 mm 11,9 km/h (2 Bft) O-NO 67 0 min -1,1 C 17,6 km/h (3 Bft)
14.03.2016 03:50 0,7 C -0,3 C 88 % 1022,5 hPa 0,0 mm 13,4 km/h (3 Bft) O-NO 67 0 min -1,1 C 16,7 km/h (3 Bft)
14.03.2016 03:55 0,7 C -0,2 C 88 % 1022,5 hPa 0,0 mm 12,5 km/h (3 Bft) NO 45 0 min -1,1 C 39,9 km/h (6 Bft)
14.03.2016 04:00 0,7 C -0,2 C 88 % 1022,5 hPa 0,0 mm 11,6 km/h (2 Bft) NO 45 0 min -1,1 C 25,9 km/h (4 Bft)
14.03.2016 04:05 0,6 C -0,1 C 88 % 1022,5 hPa 0,0 mm 15,5 km/h (3 Bft) NO 45 0 min -1,2 C 25,3 km/h (4 Bft)
14.03.2016 04:10 0,5 C -0,3 C 88 % 1022,4 hPa 0,0 mm 17,9 km/h (3 Bft) O-NO 67 0 min -1,3 C 9,8 km/h (2 Bft)
14.03.2016 04:15 0,4 C -0,7 C 89 % 1022,4 hPa 0,0 mm 13,4 km/h (3 Bft) O-SO 112 0 min -1,2 C 6,9 km/h (2 Bft)
14.03.2016 04:20 0,4 C -0,5 C 89 % 1022,4 hPa 0,0 mm 11,6 km/h (2 Bft) O-NO 67 0 min -1,2 C 17,0 km/h (3 Bft)
14.03.2016 04:25 0,3 C -0,7 C 89 % 1022,4 hPa 0,0 mm 12,8 km/h (3 Bft) NO 45 0 min -1,3 C 6,9 km/h (2 Bft)
14.03.2016 04:30 0,3 C -0,7 C 89 % 1022,4 hPa 0,0 mm 12,2 km/h (2 Bft) O-SO 112 0 min -1,3 C 14,6 km/h (3 Bft)
14.03.2016 04:35 0,3 C -0,5 C 89 % 1022,4 hPa 0,0 mm 10,4 km/h (2 Bft) O-NO 67 0 min -1,3 C 16,7 km/h (3 Bft)
14.03.2016 04:40 0,2 C -0,7 C 89 % 1022,4 hPa 0,0 mm 11,9 km/h (2 Bft) O-NO 67 0 min -1,4 C 25,3 km/h (4 Bft)
14.03.2016 04:44 0,2 C -0,9 C 89 % 1022,4 hPa 0,0 mm 13,7 km/h (3 Bft) O-SO 112 0 min -1,4 C 17,3 km/h (3 Bft)
14.03.2016 04:46 0,2 C -0,9 C 89 % 1022,4 hPa 0,0 mm 13,7 km/h (3 Bft) O-SO 112 0 min -1,4 C 17,3 km/h (3 Bft)
14.03.2016 04:50 0,2 C -0,8 C 89 % 1022,4 hPa 0,0 mm 12,8 km/h (3 Bft) NO 45 0 min -1,4 C 13,4 km/h (3 Bft)
14.03.2016 04:55 0,2 C -0,7 C 89 % 1022,4 hPa 0,0 mm 11,6 km/h (2 Bft) SO 135 0 min -1,4 C 14,3 km/h (3 Bft)
14.03.2016 05:00 0,2 C -0,8 C 89 % 1022,4 hPa 0,0 mm 12,5 km/h (3 Bft) N-NO 22 0 min -1,4 C 10,4 km/h (2 Bft)
14.03.2016 05:05 0,1 C -0,9 C 89 % 1022,4 hPa 0,0 mm 12,2 km/h (2 Bft) NO 45 0 min -1,5 C 20,0 km/h (4 Bft)
14.03.2016 05:10 0,1 C -0,8 C 89 % 1022,5 hPa 0,0 mm 11,3 km/h (2 Bft) O 90 0 min -1,5 C 20,3 km/h (4 Bft)
14.03.2016 05:15 0,0 C -0,9 C 86 % 1022,5 hPa 0,0 mm 12,2 km/h (2 Bft) O-NO 67 0 min -2,1 C 5,7 km/h (1 Bft)
14.03.2016 05:20 0,0 C -0,8 C 86 % 1022,5 hPa 0,0 mm 11,6 km/h (2 Bft) NO 45 0 min -2,1 C 13,7 km/h (3 Bft)
14.03.2016 05:25 0,0 C -0,7 C 85 % 1022,5 hPa 0,0 mm 9,8 km/h (2 Bft) NO 45 0 min -2,2 C 11,3 km/h (2 Bft)
14.03.2016 05:30 0,0 C -0,9 C 89 % 1022,6 hPa 0,0 mm 11,0 km/h (2 Bft) O-SO 112 0 min -1,6 C 8,6 km/h (2 Bft)
14.03.2016 05:35 -0,1 C -0,9 C 85 % 1022,6 hPa 0,0 mm 11,3 km/h (2 Bft) N-NO 22 0 min -2,3 C 9,2 km/h (2 Bft)
14.03.2016 05:40 -0,1 C -0,9 C 85 % 1022,6 hPa 0,0 mm 10,4 km/h (2 Bft) O-NO 67 0 min -2,3 C 12,5 km/h (3 Bft)
14.03.2016 05:45 -0,1 C -0,8 C 85 % 1022,6 hPa 0,0 mm 8,6 km/h (2 Bft) O-NO 67 0 min -2,3 C 7,2 km/h (2 Bft)
14.03.2016 05:50 -0,1 C -0,7 C 85 % 1022,6 hPa 0,0 mm 8,3 km/h (2 Bft) NO 45 0 min -2,3 C 12,8 km/h (3 Bft)
14.03.2016 05:55 -0,1 C -0,7 C 85 % 1022,6 hPa 0,0 mm 7,7 km/h (2 Bft) N-NO 22 0 min -2,3 C 12,5 km/h (3 Bft)
14.03.2016 06:00 -0,1 C -0,9 C 89 % 1022,6 hPa 0,0 mm 9,2 km/h (2 Bft) O 90 0 min -1,7 C 6,0 km/h (2 Bft)
14.03.2016 06:05 -0,1 C -0,9 C 89 % 1022,6 hPa 0,0 mm 9,5 km/h (2 Bft) SO 135 0 min -1,7 C 13,4 km/h (3 Bft)
14.03.2016 06:10 -0,1 C -0,8 C 89 % 1022,8 hPa 0,0 mm 8,3 km/h (2 Bft) NO 45 0 min -1,7 C 8,0 km/h (2 Bft)
14.03.2016 06:15 -0,2 C -0,8 C 85 % 1022,8 hPa 0,0 mm 8,3 km/h (2 Bft) O-NO 67 0 min -2,4 C 10,7 km/h (2 Bft)
14.03.2016 06:20 -0,2 C -0,9 C 85 % 1022,8 hPa 0,0 mm 9,2 km/h (2 Bft) O-NO 67 0 min -2,4 C 9,5 km/h (2 Bft)
14.03.2016 06:25 -0,2 C -0,9 C 85 % 1022,8 hPa 0,0 mm 9,2 km/h (2 Bft) O-NO 67 0 min -2,4 C 15,5 km/h (3 Bft)
14.03.2016 06:30 -0,2 C -1,0 C 85 % 1022,9 hPa 0,0 mm 10,1 km/h (2 Bft) O-SO 112 0 min -2,4 C 17,9 km/h (3 Bft)
14.03.2016 06:35 -0,2 C -1,2 C 85 % 1022,9 hPa 0,0 mm 13,4 km/h (3 Bft) O-NO 67 0 min -2,4 C 21,2 km/h (4 Bft)
14.03.2016 06:40 -0,2 C -1,2 C 89 % 1022,9 hPa 0,0 mm 13,1 km/h (3 Bft) O-NO 67 0 min -1,8 C 12,2 km/h (2 Bft)
14.03.2016 06:45 -0,2 C -1,3 C 89 % 1022,9 hPa 0,0 mm 13,7 km/h (3 Bft) O-NO 67 0 min -1,8 C 16,1 km/h (3 Bft)
14.03.2016 06:50 -0,2 C -1,2 C 89 % 1023,1 hPa 0,0 mm 12,8 km/h (3 Bft) NO 45 0 min -1,8 C 6,0 km/h (2 Bft)
14.03.2016 06:55 -0,2 C -1,1 C 89 % 1023,1 hPa 0,0 mm 10,4 km/h (2 Bft) NO 45 0 min -1,8 C 10,1 km/h (2 Bft)
14.03.2016 07:00 -0,2 C -1,0 C 89 % 1023,1 hPa 0,0 mm 9,8 km/h (2 Bft) NO 45 0 min -1,8 C 10,7 km/h (2 Bft)
14.03.2016 07:05 -0,3 C -1,0 C 85 % 1023,1 hPa 0,0 mm 10,1 km/h (2 Bft) O-SO 112 0 min -2,5 C 8,0 km/h (2 Bft)
14.03.2016 07:10 -0,3 C -1,1 C 85 % 1023,2 hPa 0,0 mm 10,1 km/h (2 Bft) NO 45 0 min -2,5 C 11,6 km/h (2 Bft)
14.03.2016 07:15 -0,3 C -1,1 C 85 % 1023,2 hPa 0,0 mm 10,7 km/h (2 Bft) O-NO 67 0 min -2,5 C 18,8 km/h (3 Bft)
14.03.2016 07:20 -0,3 C -1,4 C 89 % 1023,2 hPa 0,0 mm 13,1 km/h (3 Bft) NO 45 0 min -1,9 C 16,7 km/h (3 Bft)
14.03.2016 07:25 -0,3 C -1,4 C 88 % 1023,2 hPa 0,0 mm 13,4 km/h (3 Bft) O-NO 67 0 min -2,0 C 17,0 km/h (3 Bft)
14.03.2016 07:30 -0,3 C -1,3 C 88 % 1023,3 hPa 0,0 mm 11,6 km/h (2 Bft) N-NO 22 0 min -2,0 C 15,5 km/h (3 Bft)
14.03.2016 07:35 -0,3 C -1,4 C 88 % 1023,3 hPa 0,0 mm 13,1 km/h (3 Bft) NO 45 0 min -2,0 C 24,4 km/h (4 Bft)
14.03.2016 07:40 -0,3 C -1,1 C 88 % 1023,3 hPa 0,0 mm 14,6 km/h (3 Bft) O-NO 67 0 min -2,0 C 16,4 km/h (3 Bft)
14.03.2016 07:45 -0,5 C -1,5 C 85 % 1023,3 hPa 0,0 mm 14,9 km/h (3 Bft) NO 45 0 min -2,7 C 18,2 km/h (3 Bft)
14.03.2016 07:47 -0,5 C -1,5 C 85 % 1023,3 hPa 0,0 mm 14,9 km/h (3 Bft) NO 45 0 min -2,7 C 18,2 km/h (3 Bft)
14.03.2016 07:50 -0,5 C -1,5 C 85 % 1023,4 hPa 0,0 mm 14,6 km/h (3 Bft) N-NO 22 0 min -2,7 C 17,3 km/h (3 Bft)
14.03.2016 07:55 -0,5 C -1,1 C 85 % 1023,4 hPa 0,0 mm 15,8 km/h (3 Bft) SO 135 0 min -2,7 C 17,0 km/h (3 Bft)
14.03.2016 08:00 -0,5 C -1,5 C 85 % 1023,4 hPa 0,0 mm 15,8 km/h (3 Bft) NO 45 0 min -2,7 C 18,2 km/h (3 Bft)
14.03.2016 08:05 -0,5 C -1,2 C 85 % 1023,4 hPa 0,0 mm 14,6 km/h (3 Bft) O-NO 67 0 min -2,7 C 18,5 km/h (3 Bft)
14.03.2016 08:10 -0,5 C -1,2 C 85 % 1023,5 hPa 0,0 mm 16,4 km/h (3 Bft) O-NO 67 0 min -2,7 C 23,2 km/h (4 Bft)
14.03.2016 08:15 -0,5 C -1,6 C 85 % 1023,5 hPa 0,0 mm 17,0 km/h (3 Bft) NO 45 0 min -2,7 C 23,8 km/h (4 Bft)
14.03.2016 08:20 -0,5 C -1,6 C 85 % 1023,5 hPa 0,0 mm 16,7 km/h (3 Bft) O-NO 67 0 min -2,7 C 23,5 km/h (4 Bft)
14.03.2016 08:25 -0,5 C -1,2 C 85 % 1023,5 hPa 0,0 mm 17,9 km/h (3 Bft) N-NO 22 0 min -2,7 C 20,3 km/h (4 Bft)
14.03.2016 08:30 -0,6 C -1,2 C 85 % 1023,6 hPa 0,0 mm 17,3 km/h (3 Bft) O-NO 67 0 min -2,8 C 15,2 km/h (3 Bft)
14.03.2016 08:35 -0,5 C -1,2 C 85 % 1023,6 hPa 0,0 mm 16,1 km/h (3 Bft) O-NO 67 0 min -2,7 C 29,5 km/h (5 Bft)
14.03.2016 08:40 -0,5 C -1,2 C 85 % 1023,6 hPa 0,0 mm 14,6 km/h (3 Bft) O-NO 67 0 min -2,7 C 15,5 km/h (3 Bft)
14.03.2016 08:45 -0,5 C -1,4 C 85 % 1023,6 hPa 0,0 mm 14,6 km/h (3 Bft) S-SW 202 0 min -2,7 C 19,1 km/h (3 Bft)
14.03.2016 08:50 -0,5 C -1,4 C 85 % 1023,6 hPa 0,0 mm 14,9 km/h (3 Bft) NO 45 0 min -2,7 C 30,4 km/h (5 Bft)
14.03.2016 08:55 -0,5 C -1,4 C 85 % 1023,6 hPa 0,0 mm 14,0 km/h (3 Bft) O-NO 67 0 min -2,7 C 11,9 km/h (2 Bft)
14.03.2016 09:00 -0,5 C -1,3 C 85 % 1023,6 hPa 0,0 mm 12,8 km/h (3 Bft) NO 45 0 min -2,7 C 25,3 km/h (4 Bft)
14.03.2016 09:05 -0,5 C -1,3 C 85 % 1023,6 hPa 0,0 mm 12,8 km/h (3 Bft) O 90 0 min -2,7 C 11,9 km/h (2 Bft)
14.03.2016 09:10 -0,5 C -1,2 C 85 % 1023,6 hPa 0,0 mm 12,5 km/h (3 Bft) O-NO 67 0 min -2,7 C 10,1 km/h (2 Bft)
14.03.2016 09:15 -0,5 C -1,2 C 85 % 1023,6 hPa 0,0 mm 12,5 km/h (3 Bft) NO 45 0 min -2,7 C 20,9 km/h (4 Bft)
14.03.2016 09:20 -0,5 C -1,2 C 85 % 1023,6 hPa 0,0 mm 14,0 km/h (3 Bft) NO 45 0 min -2,7 C 12,8 km/h (3 Bft)
14.03.2016 09:25 -0,5 C -0,9 C 85 % 1023,6 hPa 0,0 mm 16,4 km/h (3 Bft) O-NO 67 0 min -2,7 C 19,7 km/h (3 Bft)
14.03.2016 09:30 -0,3 C -0,9 C 85 % 1023,8 hPa 0,0 mm 15,8 km/h (3 Bft) O-NO 67 0 min -2,5 C 16,7 km/h (3 Bft)
14.03.2016 09:35 -0,3 C -0,8 C 85 % 1023,8 hPa 0,0 mm 15,5 km/h (3 Bft) NO 45 0 min -2,5 C 21,2 km/h (4 Bft)
14.03.2016 09:40 -0,3 C -1,0 C 85 % 1023,8 hPa 0,0 mm 16,4 km/h (3 Bft) O-NO 67 0 min -2,5 C 23,8 km/h (4 Bft)
14.03.2016 09:45 -0,3 C -0,6 C 85 % 1023,8 hPa 0,0 mm 16,1 km/h (3 Bft) O-NO 67 0 min -2,5 C 17,9 km/h (3 Bft)
14.03.2016 09:50 -0,2 C -0,5 C 85 % 1023,8 hPa 0,0 mm 14,9 km/h (3 Bft) O-NO 67 0 min -2,4 C 25,9 km/h (4 Bft)
14.03.2016 09:55 -0,2 C -0,7 C 85 % 1023,8 hPa 0,0 mm 15,8 km/h (3 Bft) O-SO 112 0 min -2,4 C 26,5 km/h (4 Bft)
14.03.2016 10:00 -0,1 C -0,7 C 85 % 1023,8 hPa 0,0 mm 17,3 km/h (3 Bft) O-NO 67 0 min -2,3 C 23,5 km/h (4 Bft)
14.03.2016 10:05 -0,1 C -0,3 C 85 % 1023,8 hPa 0,0 mm 16,1 km/h (3 Bft) NO 45 0 min -2,3 C 22,1 km/h (4 Bft)
14.03.2016 10:10 0,0 C -0,2 C 85 % 1023,5 hPa 0,0 mm 16,1 km/h (3 Bft) N-NO 22 0 min -2,2 C 16,7 km/h (3 Bft)
14.03.2016 10:15 0,2 C 0,3 C 85 % 1023,5 hPa 0,0 mm 15,2 km/h (3 Bft) O-NO 67 0 min -2,0 C 15,5 km/h (3 Bft)
14.03.2016 10:20 0,3 C 0,5 C 85 % 1023,5 hPa 0,0 mm 14,6 km/h (3 Bft) O-NO 67 0 min -1,9 C 27,7 km/h (4 Bft)
14.03.2016 10:25 0,4 C 0,9 C 84 % 1023,5 hPa 0,0 mm 15,2 km/h (3 Bft) O 90 0 min -2,0 C 22,1 km/h (4 Bft)
14.03.2016 10:30 0,6 C 1,3 C 84 % 1023,7 hPa 0,0 mm 14,0 km/h (3 Bft) O-NO 67 0 min -1,8 C 14,0 km/h (3 Bft)
14.03.2016 10:35 0,9 C 2,0 C 84 % 1023,7 hPa 0,0 mm 11,6 km/h (2 Bft) W-NW 292 0 min -1,5 C 13,7 km/h (3 Bft)
14.03.2016 10:40 1,0 C 2,1 C 83 % 1023,7 hPa 0,0 mm 11,9 km/h (2 Bft) O 90 0 min -1,6 C 16,4 km/h (3 Bft)
14.03.2016 10:45 1,1 C 2,1 C 83 % 1023,7 hPa 0,0 mm 13,1 km/h (3 Bft) O-NO 67 0 min -1,5 C 11,3 km/h (2 Bft)
14.03.2016 10:48 1,1 C 2,1 C 83 % 1023,7 hPa 0,0 mm 13,1 km/h (3 Bft) O-NO 67 0 min -1,5 C 11,3 km/h (2 Bft)
14.03.2016 10:50 1,1 C 2,2 C 83 % 1023,7 hPa 0,0 mm 13,1 km/h (3 Bft) O-NO 67 0 min -1,5 C 14,9 km/h (3 Bft)
14.03.2016 10:55 1,3 C 2,0 C 82 % 1023,7 hPa 0,0 mm 13,7 km/h (3 Bft) O-NO 67 0 min -1,4 C 16,4 km/h (3 Bft)
14.03.2016 11:00 1,4 C 2,2 C 82 % 1023,7 hPa 0,0 mm 14,0 km/h (3 Bft) O-NO 67 0 min -1,3 C 17,0 km/h (3 Bft)
14.03.2016 11:05 1,6 C 2,7 C 81 % 1023,7 hPa 0,0 mm 13,7 km/h (3 Bft) O-NO 67 0 min -1,3 C 20,9 km/h (4 Bft)
14.03.2016 11:10 1,7 C 2,9 C 81 % 1023,6 hPa 0,0 mm 14,3 km/h (3 Bft) NO 45 0 min -1,2 C 22,7 km/h (4 Bft)
14.03.2016 11:15 1,6 C 2,6 C 79 % 1023,6 hPa 0,0 mm 13,7 km/h (3 Bft) N-NO 22 0 min -1,6 C 13,4 km/h (3 Bft)
14.03.2016 11:20 1,8 C 3,2 C 79 % 1023,6 hPa 0,0 mm 14,3 km/h (3 Bft) O-NO 67 0 min -1,4 C 20,6 km/h (4 Bft)
14.03.2016 11:25 2,0 C 3,5 C 78 % 1023,6 hPa 0,0 mm 14,3 km/h (3 Bft) NO 45 0 min -1,4 C 10,4 km/h (2 Bft)
14.03.2016 11:30 1,9 C 3,4 C 78 % 1023,7 hPa 0,0 mm 15,5 km/h (3 Bft) O-NO 67 0 min -1,5 C 20,9 km/h (4 Bft)
14.03.2016 11:35 1,8 C 2,5 C 78 % 1023,7 hPa 0,0 mm 14,6 km/h (3 Bft) NO 45 0 min -1,6 C 15,2 km/h (3 Bft)
14.03.2016 11:40 1,7 C 2,3 C 78 % 1023,7 hPa 0,0 mm 12,5 km/h (3 Bft) O 90 0 min -1,7 C 0,0 km/h (0 Bft)
14.03.2016 11:45 1,9 C 2,8 C 77 % 1023,7 hPa 0,0 mm 10,7 km/h (2 Bft) N-NO 22 0 min -1,7 C 15,5 km/h (3 Bft)
14.03.2016 11:50 2,0 C 2,9 C 77 % 1023,6 hPa 0,0 mm 11,0 km/h (2 Bft) NO 45 0 min -1,6 C 19,7 km/h (3 Bft)
14.03.2016 11:55 1,9 C 2,4 C 76 % 1023,6 hPa 0,0 mm 14,0 km/h (3 Bft) NO 45 0 min -1,9 C 20,3 km/h (4 Bft)
14.03.2016 12:00 1,9 C 2,7 C 76 % 1023,6 hPa 0,0 mm 15,5 km/h (3 Bft) O-NO 67 0 min -1,9 C 20,9 km/h (4 Bft)
14.03.2016 12:05 2,0 C 2,6 C 76 % 1023,6 hPa 0,0 mm 14,6 km/h (3 Bft) NO 45 0 min -1,8 C 18,5 km/h (3 Bft)
14.03.2016 12:10 2,4 C 3,5 C 76 % 1023,6 hPa 0,0 mm 16,7 km/h (3 Bft) O-NO 67 0 min -1,4 C 20,9 km/h (4 Bft)
14.03.2016 12:15 2,5 C 3,6 C 75 % 1023,6 hPa 0,0 mm 17,0 km/h (3 Bft) O-NO 67 0 min -1,5 C 27,4 km/h (4 Bft)
14.03.2016 12:20 2,7 C 4,5 C 75 % 1023,6 hPa 0,0 mm 15,5 km/h (3 Bft) NO 45 0 min -1,3 C 16,4 km/h (3 Bft)
14.03.2016 12:25 3,1 C 5,3 C 73 % 1023,6 hPa 0,0 mm 15,5 km/h (3 Bft) NO 45 0 min -1,3 C 17,6 km/h (3 Bft)
14.03.2016 12:30 3,3 C 5,6 C 72 % 1023,7 hPa 0,0 mm 16,7 km/h (3 Bft) O-NO 67 0 min -1,3 C 20,0 km/h (4 Bft)
14.03.2016 12:35 3,1 C 5,4 C 72 % 1023,7 hPa 0,0 mm 16,4 km/h (3 Bft) O 90 0 min -1,4 C 17,3 km/h (3 Bft)
14.03.2016 12:40 3,1 C 5,1 C 72 % 1023,7 hPa 0,0 mm 16,1 km/h (3 Bft) O-NO 67 0 min -1,4 C 17,3 km/h (3 Bft)
14.03.2016 12:45 3,1 C 4,9 C 71 % 1023,7 hPa 0,0 mm 15,5 km/h (3 Bft) O-NO 67 0 min -1,6 C 23,2 km/h (4 Bft)
14.03.2016 12:50 3,3 C 5,2 C 71 % 1023,8 hPa 0,0 mm 15,8 km/h (3 Bft) O-NO 67 0 min -1,4 C 19,1 km/h (3 Bft)
14.03.2016 12:55 3,5 C 5,7 C 71 % 1023,8 hPa 0,0 mm 14,3 km/h (3 Bft) O 90 0 min -1,3 C 12,8 km/h (3 Bft)
14.03.2016 13:00 3,5 C 5,8 C 70 % 1023,8 hPa 0,0 mm 13,1 km/h (3 Bft) O-NO 67 0 min -1,4 C 18,2 km/h (3 Bft)
14.03.2016 13:05 3,5 C 6,2 C 70 % 1023,8 hPa 0,0 mm 11,0 km/h (2 Bft) O-NO 67 0 min -1,4 C 15,5 km/h (3 Bft)
14.03.2016 13:10 3,6 C 6,2 C 70 % 1023,7 hPa 0,0 mm 11,3 km/h (2 Bft) O-SO 112 0 min -1,3 C 8,9 km/h (2 Bft)
14.03.2016 13:15 3,7 C 6,2 C 70 % 1023,7 hPa 0,0 mm 12,2 km/h (2 Bft) O-NO 67 0 min -1,3 C 16,7 km/h (3 Bft)
14.03.2016 13:20 3,7 C 5,9 C 69 % 1023,7 hPa 0,0 mm 12,2 km/h (2 Bft) O-NO 67 0 min -1,4 C 21,2 km/h (4 Bft)
14.03.2016 13:25 3,9 C 6,8 C 69 % 1023,7 hPa 0,0 mm 12,8 km/h (3 Bft) S-SO 157 0 min -1,3 C 14,3 km/h (3 Bft)
14.03.2016 13:30 3,8 C 6,7 C 69 % 1023,6 hPa 0,0 mm 12,5 km/h (3 Bft) O-NO 67 0 min -1,4 C 16,4 km/h (3 Bft)
14.03.2016 13:35 3,9 C 6,0 C 68 % 1023,6 hPa 0,0 mm 13,4 km/h (3 Bft) O-SO 112 0 min -1,5 C 22,1 km/h (4 Bft)
14.03.2016 13:40 3,8 C 6,0 C 68 % 1023,6 hPa 0,0 mm 14,3 km/h (3 Bft) O-NO 67 0 min -1,6 C 21,8 km/h (4 Bft)
14.03.2016 13:45 3,9 C 5,6 C 68 % 1023,6 hPa 0,0 mm 13,4 km/h (3 Bft) O-NO 67 0 min -1,5 C 14,0 km/h (3 Bft)
14.03.2016 13:48 3,9 C 5,6 C 68 % 1023,6 hPa 0,0 mm 13,4 km/h (3 Bft) O-NO 67 0 min -1,5 C 14,0 km/h (3 Bft)
14.03.2016 13:50 4,2 C 6,2 C 67 % 1023,6 hPa 0,0 mm 13,7 km/h (3 Bft) O-NO 67 0 min -1,4 C 20,0 km/h (4 Bft)
14.03.2016 13:55 4,2 C 6,6 C 66 % 1023,6 hPa 0,0 mm 14,3 km/h (3 Bft) NO 45 0 min -1,6 C 17,3 km/h (3 Bft)
14.03.2016 14:00 3,9 C 6,3 C 66 % 1023,6 hPa 0,0 mm 14,9 km/h (3 Bft) O-NO 67 0 min -1,9 C 21,2 km/h (4 Bft)
14.03.2016 14:05 3,8 C 5,5 C 67 % 1023,6 hPa 0,0 mm 16,1 km/h (3 Bft) O-NO 67 0 min -1,8 C 19,1 km/h (3 Bft)
14.03.2016 14:10 3,8 C 5,4 C 67 % 1023,6 hPa 0,0 mm 16,1 km/h (3 Bft) NO 45 0 min -1,8 C 17,9 km/h (3 Bft)
14.03.2016 14:15 4,1 C 5,5 C 66 % 1023,6 hPa 0,0 mm 14,9 km/h (3 Bft) S 180 0 min -1,7 C 11,3 km/h (2 Bft)
14.03.2016 14:20 4,2 C 5,5 C 66 % 1023,6 hPa 0,0 mm 14,0 km/h (3 Bft) O-NO 67 0 min -1,6 C 16,1 km/h (3 Bft)
14.03.2016 14:25 3,9 C 5,0 C 66 % 1023,6 hPa 0,0 mm 13,1 km/h (3 Bft) O-NO 67 0 min -1,9 C 16,7 km/h (3 Bft)
14.03.2016 14:30 3,9 C 5,3 C 66 % 1023,4 hPa 0,0 mm 14,9 km/h (3 Bft) NO 45 0 min -1,9 C 29,8 km/h (5 Bft)
14.03.2016 14:35 3,9 C 5,0 C 66 % 1023,4 hPa 0,0 mm 15,5 km/h (3 Bft) NO 45 0 min -1,9 C 19,7 km/h (3 Bft)
14.03.2016 14:40 3,9 C 4,7 C 66 % 1023,4 hPa 0,0 mm 15,8 km/h (3 Bft) O-NO 67 0 min -1,9 C 23,5 km/h (4 Bft)
14.03.2016 14:45 3,8 C 4,4 C 66 % 1023,4 hPa 0,0 mm 14,0 km/h (3 Bft) O 90 0 min -2,0 C 13,1 km/h (3 Bft)
14.03.2016 14:50 3,8 C 4,7 C 66 % 1023,1 hPa 0,0 mm 11,6 km/h (2 Bft) O-NO 67 0 min -2,0 C 13,4 km/h (3 Bft)
14.03.2016 14:55 3,9 C 4,8 C 66 % 1023,1 hPa 0,0 mm 12,2 km/h (2 Bft) NO 45 0 min -1,9 C 19,1 km/h (3 Bft)
14.03.2016 15:00 4,1 C 4,9 C 65 % 1023,1 hPa 0,0 mm 16,4 km/h (3 Bft) S 180 0 min -1,9 C 17,9 km/h (3 Bft)
14.03.2016 15:05 3,9 C 4,6 C 65 % 1023,1 hPa 0,0 mm 16,7 km/h (3 Bft) O-NO 67 0 min -2,1 C 19,4 km/h (3 Bft)
14.03.2016 15:10 3,9 C 4,6 C 65 % 1022,9 hPa 0,0 mm 12,5 km/h (3 Bft) O-NO 67 0 min -2,1 C 13,1 km/h (3 Bft)
14.03.2016 15:15 4,1 C 5,0 C 65 % 1022,9 hPa 0,0 mm 10,7 km/h (2 Bft) NO 45 0 min -1,9 C 17,3 km/h (3 Bft)
14.03.2016 15:20 4,2 C 5,1 C 65 % 1022,9 hPa 0,0 mm 10,7 km/h (2 Bft) O-NO 67 0 min -1,8 C 8,9 km/h (2 Bft)
14.03.2016 15:25 4,2 C 4,9 C 65 % 1022,9 hPa 0,0 mm 10,4 km/h (2 Bft) NO 45 0 min -1,8 C 8,6 km/h (2 Bft)
14.03.2016 15:30 4,2 C 5,2 C 65 % 1022,6 hPa 0,0 mm 8,6 km/h (2 Bft) N-NO 22 0 min -1,8 C 11,9 km/h (2 Bft)
14.03.2016 15:35 4,3 C 5,0 C 65 % 1022,6 hPa 0,0 mm 8,9 km/h (2 Bft) O-NO 67 0 min -1,7 C 12,5 km/h (3 Bft)
14.03.2016 15:40 4,4 C 5,4 C 65 % 1022,6 hPa 0,0 mm 10,1 km/h (2 Bft) O-NO 67 0 min -1,6 C 7,7 km/h (2 Bft)
14.03.2016 15:45 4,5 C 6,6 C 64 % 1022,6 hPa 0,0 mm 9,2 km/h (2 Bft) O-NO 67 0 min -1,7 C 15,5 km/h (3 Bft)
14.03.2016 15:50 4,3 C 6,4 C 64 % 1022,4 hPa 0,0 mm 9,5 km/h (2 Bft) NO 45 0 min -1,9 C 13,4 km/h (3 Bft)
14.03.2016 15:55 4,2 C 5,4 C 63 % 1022,4 hPa 0,0 mm 11,9 km/h (2 Bft) O-NO 67 0 min -2,2 C 17,0 km/h (3 Bft)
14.03.2016 16:00 4,2 C 5,3 C 63 % 1022,4 hPa 0,0 mm 10,1 km/h (2 Bft) W 270 0 min -2,2 C 5,4 km/h (1 Bft)
14.03.2016 16:05 4,2 C 5,2 C 64 % 1022,4 hPa 0,0 mm 8,3 km/h (2 Bft) O-SO 112 0 min -2,0 C 8,0 km/h (2 Bft)
14.03.2016 16:10 4,4 C 5,9 C 64 % 1022,4 hPa 0,0 mm 8,6 km/h (2 Bft) O-NO 67 0 min -1,8 C 7,2 km/h (2 Bft)
14.03.2016 16:15 4,7 C 6,7 C 63 % 1022,4 hPa 0,0 mm 11,0 km/h (2 Bft) NO 45 0 min -1,7 C 19,7 km/h (3 Bft)
14.03.2016 16:20 4,7 C 6,0 C 63 % 1022,4 hPa 0,0 mm 13,1 km/h (3 Bft) NO 45 0 min -1,7 C 18,8 km/h (3 Bft)
14.03.2016 16:25 4,5 C 4,6 C 62 % 1022,4 hPa 0,0 mm 14,0 km/h (3 Bft) O 90 0 min -2,1 C 9,5 km/h (2 Bft)
14.03.2016 16:30 4,3 C 4,2 C 63 % 1022,6 hPa 0,0 mm 12,5 km/h (3 Bft) O-NO 67 0 min -2,1 C 10,7 km/h (2 Bft)
14.03.2016 16:35 4,2 C 4,0 C 63 % 1022,6 hPa 0,0 mm 12,2 km/h (2 Bft) O-NO 67 0 min -2,2 C 14,0 km/h (3 Bft)
14.03.2016 16:40 4,2 C 4,0 C 63 % 1022,6 hPa 0,0 mm 10,7 km/h (2 Bft) N-NO 22 0 min -2,2 C 7,5 km/h (2 Bft)
14.03.2016 16:45 3,9 C 4,0 C 63 % 1022,6 hPa 0,0 mm 8,0 km/h (2 Bft) NO 45 0 min -2,5 C 7,2 km/h (2 Bft)
14.03.2016 16:49 3,9 C 4,1 C 64 % 1022,5 hPa 0,0 mm 4,8 km/h (1 Bft) N-NO 22 0 min -2,3 C 6,6 km/h (2 Bft)
14.03.2016 16:50 3,9 C 4,1 C 64 % 1022,5 hPa 0,0 mm 4,8 km/h (1 Bft) N-NO 22 0 min -2,3 C 6,6 km/h (2 Bft)
14.03.2016 16:55 3,7 C 3,9 C 64 % 1022,5 hPa 0,0 mm 3,3 km/h (1 Bft) O-NO 67 0 min -2,5 C 0,0 km/h (0 Bft)
14.03.2016 17:00 3,6 C 3,8 C 64 % 1022,5 hPa 0,0 mm 4,5 km/h (1 Bft) O-NO 67 0 min -2,6 C 9,2 km/h (2 Bft)
14.03.2016 17:05 3,5 C 3,8 C 65 % 1022,5 hPa 0,0 mm 3,6 km/h (1 Bft) O-NO 67 0 min -2,4 C 4,8 km/h (1 Bft)
14.03.2016 17:10 3,5 C 3,9 C 65 % 1022,4 hPa 0,0 mm 3,0 km/h (1 Bft) SO 135 0 min -2,4 C 0,0 km/h (0 Bft)
14.03.2016 17:15 3,5 C 3,8 C 66 % 1022,4 hPa 0,0 mm 1,8 km/h (1 Bft) O-SO 112 0 min -2,2 C 0,0 km/h (0 Bft)
14.03.2016 17:20 3,4 C 3,7 C 66 % 1022,4 hPa 0,0 mm 3,0 km/h (1 Bft) O-NO 67 0 min -2,3 C 8,9 km/h (2 Bft)
14.03.2016 17:25 3,5 C 3,6 C 66 % 1022,4 hPa 0,0 mm 5,4 km/h (1 Bft) O-NO 67 0 min -2,2 C 6,6 km/h (2 Bft)
14.03.2016 17:30 3,5 C 3,6 C 66 % 1022,3 hPa 0,0 mm 5,1 km/h (1 Bft) NO 45 0 min -2,2 C 5,7 km/h (1 Bft)
14.03.2016 17:35 3,4 C 3,6 C 66 % 1022,3 hPa 0,0 mm 5,1 km/h (1 Bft) O-NO 67 0 min -2,3 C 13,7 km/h (3 Bft)
14.03.2016 17:40 3,5 C 3,4 C 66 % 1022,3 hPa 0,0 mm 7,5 km/h (2 Bft) O-SO 112 0 min -2,2 C 13,4 km/h (3 Bft)
14.03.2016 17:45 3,5 C 3,2 C 66 % 1022,3 hPa 0,0 mm 8,6 km/h (2 Bft) N-NO 22 0 min -2,2 C 13,4 km/h (3 Bft)
14.03.2016 17:50 3,5 C 3,1 C 66 % 1022,6 hPa 0,0 mm 8,6 km/h (2 Bft) O-NO 67 0 min -2,2 C 16,1 km/h (3 Bft)
14.03.2016 17:55 3,4 C 3,0 C 65 % 1022,6 hPa 0,0 mm 9,5 km/h (2 Bft) O-NO 67 0 min -2,5 C 11,0 km/h (2 Bft)
14.03.2016 18:00 3,3 C 2,9 C 65 % 1022,6 hPa 0,0 mm 9,2 km/h (2 Bft) NO 45 0 min -2,6 C 11,3 km/h (2 Bft)
14.03.2016 18:05 3,1 C 2,8 C 66 % 1022,6 hPa 0,0 mm 6,9 km/h (2 Bft) NO 45 0 min -2,6 C 10,7 km/h (2 Bft)
14.03.2016 18:10 3,2 C 2,7 C 66 % 1022,6 hPa 0,0 mm 8,3 km/h (2 Bft) NO 45 0 min -2,5 C 17,6 km/h (3 Bft)
14.03.2016 18:15 3,0 C 2,5 C 66 % 1022,6 hPa 0,0 mm 9,8 km/h (2 Bft) O-SO 112 0 min -2,7 C 17,3 km/h (3 Bft)
14.03.2016 18:20 3,0 C 2,4 C 66 % 1022,6 hPa 0,0 mm 10,1 km/h (2 Bft) O-NO 67 0 min -2,7 C 18,5 km/h (3 Bft)
14.03.2016 18:25 2,9 C 2,3 C 66 % 1022,6 hPa 0,0 mm 10,7 km/h (2 Bft) O-NO 67 0 min -2,8 C 8,0 km/h (2 Bft)
14.03.2016 18:30 2,7 C 2,2 C 67 % 1022,8 hPa 0,0 mm 10,1 km/h (2 Bft) NO 45 0 min -2,8 C 6,0 km/h (2 Bft)
14.03.2016 18:35 2,7 C 2,2 C 67 % 1022,8 hPa 0,0 mm 8,9 km/h (2 Bft) O-NO 67 0 min -2,8 C 11,6 km/h (2 Bft)
14.03.2016 18:40 2,7 C 2,2 C 67 % 1022,8 hPa 0,0 mm 8,3 km/h (2 Bft) S-SO 157 0 min -2,8 C 0,0 km/h (0 Bft)
14.03.2016 18:45 2,6 C 2,2 C 68 % 1022,8 hPa 0,0 mm 7,7 km/h (2 Bft) N-NO 22 0 min -2,7 C 10,7 km/h (2 Bft)
14.03.2016 18:50 2,5 C 2,2 C 68 % 1022,7 hPa 0,0 mm 6,6 km/h (2 Bft) N-NO 22 0 min -2,8 C 11,3 km/h (2 Bft)
14.03.2016 18:55 2,3 C 2,2 C 68 % 1022,7 hPa 0,0 mm 3,9 km/h (1 Bft) O-NO 67 0 min -3,0 C 0,0 km/h (0 Bft)
14.03.2016 19:00 2,3 C 2,1 C 68 % 1022,7 hPa 0,0 mm 3,0 km/h (1 Bft) N-NO 22 0 min -3,0 C 0,0 km/h (0 Bft)
14.03.2016 19:05 2,2 C 2,0 C 68 % 1022,7 hPa 0,0 mm 2,4 km/h (1 Bft) O-NO 67 0 min -3,1 C 0,0 km/h (0 Bft)
14.03.2016 19:10 2,1 C 1,9 C 68 % 1022,8 hPa 0,0 mm 2,7 km/h (1 Bft) NW 315 0 min -3,2 C 0,0 km/h (0 Bft)
14.03.2016 19:15 1,9 C 1,6 C 69 % 1022,8 hPa 0,0 mm 2,1 km/h (1 Bft) O-NO 67 0 min -3,2 C 0,0 km/h (0 Bft)
14.03.2016 19:20 1,7 C 1,4 C 69 % 1022,8 hPa 0,0 mm 0,9 km/h (0 Bft) N-NO 22 0 min -3,4 C 0,0 km/h (0 Bft)
14.03.2016 19:25 1,6 C 1,2 C 70 % 1022,8 hPa 0,0 mm 0,6 km/h (0 Bft) O-SO 112 0 min -3,3 C 5,1 km/h (1 Bft)
14.03.2016 19:30 1,6 C 1,1 C 70 % 1022,6 hPa 0,0 mm 1,5 km/h (1 Bft) O 90 0 min -3,3 C 7,2 km/h (2 Bft)
14.03.2016 19:35 1,5 C 1,1 C 71 % 1022,6 hPa 0,0 mm 2,1 km/h (1 Bft) O-NO 67 0 min -3,2 C 0,0 km/h (0 Bft)
14.03.2016 19:40 1,3 C 0,9 C 71 % 1022,6 hPa 0,0 mm 1,8 km/h (1 Bft) O-SO 112 0 min -3,4 C 5,7 km/h (1 Bft)
14.03.2016 19:45 1,2 C 0,7 C 71 % 1022,6 hPa 0,0 mm 1,5 km/h (1 Bft) NO 45 0 min -3,5 C 0,0 km/h (0 Bft)
14.03.2016 19:49 1,1 C 0,6 C 72 % 1022,7 hPa 0,0 mm 2,4 km/h (1 Bft) O-NO 67 0 min -3,4 C 6,0 km/h (2 Bft)
14.03.2016 19:50 1,1 C 0,6 C 72 % 1022,7 hPa 0,0 mm 2,4 km/h (1 Bft) O-NO 67 0 min -3,4 C 6,0 km/h (2 Bft)
14.03.2016 19:55 1,0 C 0,4 C 72 % 1022,7 hPa 0,0 mm 1,8 km/h (1 Bft) O-SO 112 0 min -3,5 C 0,0 km/h (0 Bft)
14.03.2016 20:00 0,8 C 0,2 C 73 % 1022,7 hPa 0,0 mm 1,5 km/h (1 Bft) O 90 0 min -3,5 C 3,3 km/h (1 Bft)
14.03.2016 20:05 0,9 C 0,2 C 73 % 1022,7 hPa 0,0 mm 2,4 km/h (1 Bft) O-NO 67 0 min -3,4 C 4,2 km/h (1 Bft)
14.03.2016 20:10 0,6 C 0,0 C 73 % 1022,6 hPa 0,0 mm 2,4 km/h (1 Bft) O 90 0 min -3,7 C 0,0 km/h (0 Bft)
14.03.2016 20:15 0,4 C -0,2 C 73 % 1022,6 hPa 0,0 mm 1,2 km/h (1 Bft) S 180 0 min -3,9 C 3,9 km/h (1 Bft)
14.03.2016 20:20 0,4 C -0,2 C 74 % 1022,6 hPa 0,0 mm 0,9 km/h (0 Bft) S-SO 157 0 min -3,7 C 0,0 km/h (0 Bft)
14.03.2016 20:25 0,2 C -0,5 C 74 % 1022,6 hPa 0,0 mm 0,6 km/h (0 Bft) N-NO 22 0 min -3,9 C 3,3 km/h (1 Bft)
14.03.2016 20:30 0,1 C -0,6 C 75 % 1022,5 hPa 0,0 mm 0,6 km/h (0 Bft) O-NO 67 0 min -3,8 C 0,0 km/h (0 Bft)
14.03.2016 20:35 0,1 C -0,6 C 76 % 1022,5 hPa 0,0 mm 0,6 km/h (0 Bft) O 90 0 min -3,6 C 3,3 km/h (1 Bft)
14.03.2016 20:40 0,0 C -0,7 C 76 % 1022,5 hPa 0,0 mm 1,5 km/h (1 Bft) O 90 0 min -3,7 C 3,9 km/h (1 Bft)
14.03.2016 20:45 0,0 C -0,7 C 76 % 1022,5 hPa 0,0 mm 1,8 km/h (1 Bft) O-SO 112 0 min -3,7 C 3,6 km/h (1 Bft)
14.03.2016 20:50 -0,1 C -0,8 C 76 % 1022,4 hPa 0,0 mm 1,5 km/h (1 Bft) O-SO 112 0 min -3,8 C 5,7 km/h (1 Bft)
14.03.2016 20:55 -0,2 C -0,9 C 76 % 1022,4 hPa 0,0 mm 1,2 km/h (1 Bft) SO 135 0 min -3,9 C 3,0 km/h (1 Bft)
14.03.2016 21:00 -0,3 C -0,9 C 76 % 1022,4 hPa 0,0 mm 1,2 km/h (1 Bft) O-SO 112 0 min -4,0 C 7,2 km/h (2 Bft)
14.03.2016 21:05 -0,4 C -1,0 C 76 % 1022,4 hPa 0,0 mm 1,5 km/h (1 Bft) O-SO 112 0 min -4,1 C 0,0 km/h (0 Bft)
14.03.2016 21:10 -0,4 C -1,0 C 77 % 1022,1 hPa 0,0 mm 2,1 km/h (1 Bft) O-NO 67 0 min -3,9 C 3,0 km/h (1 Bft)
14.03.2016 21:15 -0,5 C -1,1 C 77 % 1022,1 hPa 0,0 mm 0,9 km/h (0 Bft) O-SO 112 0 min -4,0 C 0,0 km/h (0 Bft)
14.03.2016 21:20 -0,6 C -1,2 C 77 % 1022,1 hPa 0,0 mm 0,6 km/h (0 Bft) O 90 0 min -4,1 C 4,2 km/h (1 Bft)
14.03.2016 21:25 -0,5 C -1,2 C 77 % 1022,1 hPa 0,0 mm 1,2 km/h (1 Bft) S-SO 157 0 min -4,0 C 5,7 km/h (1 Bft)
14.03.2016 21:30 -0,6 C -1,3 C 77 % 1022,0 hPa 0,0 mm 1,5 km/h (1 Bft) O-SO 112 0 min -4,1 C 0,0 km/h (0 Bft)
14.03.2016 21:35 -0,7 C -1,3 C 78 % 1022,0 hPa 0,0 mm 1,8 km/h (1 Bft) S-SO 157 0 min -4,0 C 0,0 km/h (0 Bft)
14.03.2016 21:40 -0,8 C -1,4 C 77 % 1022,0 hPa 0,0 mm 0,9 km/h (0 Bft) SO 135 0 min -4,3 C 0,0 km/h (0 Bft)
14.03.2016 21:45 -1,0 C -1,6 C 77 % 1022,0 hPa 0,0 mm 0,3 km/h (0 Bft) O-SO 112 0 min -4,5 C 0,0 km/h (0 Bft)
14.03.2016 21:50 -1,2 C -1,8 C 77 % 1021,9 hPa 0,0 mm 0,0 km/h (0 Bft) NO 45 0 min -4,7 C 0,0 km/h (0 Bft)
14.03.2016 21:55 -1,8 C -2,4 C 77 % 1021,9 hPa 0,0 mm 0,0 km/h (0 Bft) W 270 0 min -5,3 C 0,0 km/h (0 Bft)
14.03.2016 22:00 -1,8 C -2,5 C 77 % 1021,9 hPa 0,0 mm 0,0 km/h (0 Bft) W-NW 292 0 min -5,3 C 0,0 km/h (0 Bft)
14.03.2016 22:05 -1,8 C -2,5 C 78 % 1021,9 hPa 0,0 mm 0,0 km/h (0 Bft) S-SO 157 0 min -5,1 C 0,0 km/h (0 Bft)
14.03.2016 22:10 -1,7 C -2,5 C 78 % 1021,8 hPa 0,0 mm 0,0 km/h (0 Bft) S-SO 157 0 min -5,0 C 0,0 km/h (0 Bft)
14.03.2016 22:15 -1,8 C -2,5 C 78 % 1021,8 hPa 0,0 mm 0,0 km/h (0 Bft) SW 225 0 min -5,1 C 0,0 km/h (0 Bft)
14.03.2016 22:20 -1,9 C -2,6 C 78 % 1021,8 hPa 0,0 mm 0,0 km/h (0 Bft) O-SO 112 0 min -5,2 C 0,0 km/h (0 Bft)
14.03.2016 22:25 -1,8 C -2,6 C 79 % 1021,8 hPa 0,0 mm 0,0 km/h (0 Bft) S 180 0 min -4,9 C 3,0 km/h (1 Bft)
14.03.2016 22:30 -1,7 C -2,5 C 80 % 1021,6 hPa 0,0 mm 0,0 km/h (0 Bft) S 180 0 min -4,7 C 0,0 km/h (0 Bft)
14.03.2016 22:35 -1,6 C -2,3 C 81 % 1021,6 hPa 0,0 mm 1,5 km/h (1 Bft) S 180 0 min -4,4 C 6,6 km/h (2 Bft)
14.03.2016 22:40 -1,7 C -2,3 C 81 % 1021,6 hPa 0,0 mm 3,3 km/h (1 Bft) S-SO 157 0 min -4,5 C 4,2 km/h (1 Bft)
14.03.2016 22:45 -1,9 C -2,4 C 81 % 1021,6 hPa 0,0 mm 3,0 km/h (1 Bft) S 180 0 min -4,7 C 0,0 km/h (0 Bft)
14.03.2016 22:49 -2,0 C -2,6 C 80 % 1021,4 hPa 0,0 mm 1,2 km/h (1 Bft) S-SW 202 0 min -5,0 C 0,0 km/h (0 Bft)
14.03.2016 22:51 -2,0 C -2,6 C 80 % 1021,4 hPa 0,0 mm 1,2 km/h (1 Bft) S-SW 202 0 min -5,0 C 0,0 km/h (0 Bft)
14.03.2016 22:55 -2,2 C -2,7 C 80 % 1021,4 hPa 0,0 mm 2,7 km/h (1 Bft) W-SW 247 0 min -5,2 C 5,1 km/h (1 Bft)
14.03.2016 23:00 -2,2 C -2,7 C 80 % 1021,4 hPa 0,0 mm 3,0 km/h (1 Bft) S 180 0 min -5,2 C 0,0 km/h (0 Bft)
14.03.2016 23:05 -2,4 C -2,9 C 81 % 1021,4 hPa 0,0 mm 0,9 km/h (0 Bft) W-NW 292 0 min -5,2 C 0,0 km/h (0 Bft)
14.03.2016 23:10 -2,7 C -3,2 C 80 % 1021,6 hPa 0,0 mm 0,0 km/h (0 Bft) O-NO 67 0 min -5,7 C 0,0 km/h (0 Bft)
14.03.2016 23:15 -2,6 C -3,2 C 81 % 1021,6 hPa 0,0 mm 0,0 km/h (0 Bft) O-SO 112 0 min -5,4 C 0,0 km/h (0 Bft)
14.03.2016 23:20 -2,5 C -3,2 C 82 % 1021,6 hPa 0,0 mm 0,0 km/h (0 Bft) O-NO 67 0 min -5,1 C 0,0 km/h (0 Bft)
14.03.2016 23:25 -2,7 C -3,3 C 81 % 1021,6 hPa 0,0 mm 0,0 km/h (0 Bft) SW 225 0 min -5,5 C 0,0 km/h (0 Bft)
14.03.2016 23:30 -3,0 C -3,5 C 81 % 1021,4 hPa 0,0 mm 0,0 km/h (0 Bft) W-NW 292 0 min -5,8 C 0,0 km/h (0 Bft)
14.03.2016 23:35 -2,8 C -3,5 C 81 % 1021,4 hPa 0,0 mm 0,0 km/h (0 Bft) S 180 0 min -5,6 C 0,0 km/h (0 Bft)
14.03.2016 23:40 -2,6 C -3,2 C 82 % 1021,4 hPa 0,0 mm 1,2 km/h (1 Bft) S 180 0 min -5,2 C 5,1 km/h (1 Bft)
14.03.2016 23:45 -2,6 C -3,1 C 83 % 1021,4 hPa 0,0 mm 2,1 km/h (1 Bft) SO 135 0 min -5,1 C 0,0 km/h (0 Bft)
14.03.2016 23:50 -2,7 C -3,2 C 83 % 1021,2 hPa 0,0 mm 1,2 km/h (1 Bft) S-SO 157 0 min -5,2 C 0,0 km/h (0 Bft)
14.03.2016 23:55 -3,0 C -3,4 C 83 % 1021,2 hPa 0,0 mm 0,0 km/h (0 Bft) NW 315 0 min -5,5 C 0,0 km/h (0 Bft)
_ Min-Zeit 23:55 23:35 16:25 23:55 - 23:55 - - - 23:30 23:55
Minimum _ -3,0 C -3,5 C 62 % 1021,2 hPa - 0,0 km/h (0 Bft) - - - -5,8 C 0,0 km/h (0 Bft)
_ Max-Zeit 16:20 13:25 07:20 00:05 23:55 08:25 - - 23:55 02:45 03:55
Maximum _ 4,7 C 6,8 C 89 % 1024,0 hPa 0,0 mm 17,9 km/h
N-NO (3 Bft)
- - 0 min -0,9 C 39,9 km/h
NO (6 Bft)
Durchschnitt _ 1,1 C 1,0 C 78 % 1022,9 hPa #0,0 mm 10,2 km/h (2 Bft) O-NO - #0 min. -2,3 C 12,9 km/h (3 Bft)